Regional Weather Roundup
Issued by NWS

Home | Current Version | Previous Version | Graphics & Text | Print | Product List | Glossary On
Versions: 1 2 3 4 5 6 7 8 9 10 11 12 13 14 15 16 17 18 19 20 21 22 23 24 25 26 27 28 29 30 31 32 33 34 35 36 37 38 39 40 41 42 43 44 45 46 47 48 49 50
000
ASUS43 KDMX 040003
RWRIA

WEATHER ROUNDUP FOR IOWA
NATIONAL WEATHER SERVICE DES MOINES IA
700 PM CDT TUE MAY 03 2016

NOTE: "FAIR" INDICATES FEW OR NO CLOUDS BELOW 12,000 FEET WITH NO
SIGNIFICANT WEATHER AND/OR OBSTRUCTIONS TO VISIBILITY.

* - THESE STATIONS ARE NOT NWS STATIONS...THUS NOT UNDER NWS
QUALITY CONTROL.  THEY ALSO DO NOT REPORT WEATHER SUCH
AS PRECIPITATION OR FOG.

IAZ001>003-012>014-020>022-031>034-043>046-040100-
   NORTHWEST IOWA

CITY           SKY/WX    TMP DP  RH WIND       PRES   REMARKS
CARROLL *      MOSUNNY   66  46  48 W18       29.86F
CHEROKEE *     SUNNY     67  46  46 W14G24    29.84F
DENISON *      MOSUNNY   68  43  40 NW16G22   29.86F
LE MARS *      SUNNY     68  46  45 W14G24    29.85F
ORANGE CITY *  SUNNY     68  46  45 W17       29.83F
SHELDON *      PTSUNNY   70  45  40 W21       29.79F
SIOUX CITY     SUNNY     69  45  41 NW14G22   29.87F
6HR MIN TEMP:  65; 6HR MAX TEMP:  70;

SPENCER        PTSUNNY   68  42  38 W15       29.79F
6HR MIN TEMP:  64; 6HR MAX TEMP:  71;

STORM LAKE *   SUNNY     66  45  45 W21G29    29.84F
$$

IAZ055>058-069>071-079>083-090>094-040100-
   SOUTHWEST IOWA

CITY           SKY/WX    TMP DP  RH WIND       PRES   REMARKS
ATLANTIC *     MOSUNNY   68  43  40 W12G23    29.88F
AUDUBON *      MOSUNNY   66  43  42 NW10G17   29.89F
CLARINDA *       N/A    N/A N/A N/A MISG        N/A
COUNCIL BLFS * MOSUNNY   68  43  40 W13G20    29.90F
CRESTON *      SUNNY     64  45  48 W13       29.90F
HARLAN  *      CLOUDY    68  43  40 NW15      29.91F
LAMONI         MOSUNNY   64  45  49 W12       29.90F
6HR MIN TEMP:  63; 6HR MAX TEMP:  67;

RED OAK *      MOSUNNY   68  43  40 W9G16     29.90F
SHENANDOAH *   MOSUNNY   68  45  42 W14       29.92F
$$

IAZ047>049-059>061-072>074-084-040100-
   CENTRAL IOWA

CITY           SKY/WX    TMP DP  RH WIND       PRES   REMARKS
AMES           MOSUNNY   66  43  43 W15       29.83F
6HR MIN TEMP:  64; 6HR MAX TEMP:  69;

ANKENY *       PTSUNNY   66  45  45 W13G22    29.84F
BOONE *        MOSUNNY   66  43  42 W18G25    29.83F
CHARITON *     PTSUNNY   64  43  45 W14G24    29.88F
DES MOINES     PTSUNNY   67  42  40 W12       29.85F
6HR MIN TEMP:  66; 6HR MAX TEMP:  70;

GRINNELL*      CLOUDY    65  43  45 W15       29.84F
KNOXVILLE *    MOSUNNY   66  41  39 W14       29.84F
MARSHALLTOWN   PTSUNNY   65  44  46 W15G26    29.80F
6HR MIN TEMP:  64; 6HR MAX TEMP:  68;

NEWTON *       PTSUNNY   66  43  42 W21       29.83F
PERRY *          N/A     66  45  45 W16G23    29.86S
$$

IAZ004>006-015-016-023>025-035-036-040100-
   NORTH CENTRAL IOWA

CITY           SKY/WX    TMP DP  RH WIND       PRES   REMARKS
ALGONA *       MOSUNNY   68  46  45 W20       29.77F
CLARION *      PTSUNNY   66  45  45 W21G30    29.79F
ESTHERVILLE    PTSUNNY   66  46  48 W14       29.75F
6HR MIN TEMP:  63; 6HR MAX TEMP:  68;

FORT DODGE *   SUNNY     66  45  45 W10G25    29.82F
MASON CITY     MOSUNNY   66  45  46 W18G26    29.76F
6HR MIN TEMP:  65; 6HR MAX TEMP:  69;

FOREST CITY *  MOSUNNY   66  43  42 W12G21    29.75F
WEBSTER CITY * MOSUNNY   66  45  45 W23       29.79F
IOWA FALLS *     N/A     67  44  43 W24G32    29.81F
$$

IAZ007>011-017>019-026>030-037>042-050>054-066-040100-
   NORTHEAST IOWA

CITY           SKY/WX    TMP DP  RH WIND       PRES   REMARKS
CEDAR RAPIDS   CLOUDY    63  45  51 W13       29.79F
6HR MIN TEMP:  62; 6HR MAX TEMP:  68;

CHARLES CITY * CLOUDY    66  43  42 W20G26    29.75F
CLINTON *      PTSUNNY   64  42  44 W16       29.80F
DECORAH *      SUNNY     66  39  37 W10G21    29.71F
DUBUQUE        PTSUNNY   63  41  44 W14       29.76F
6HR MIN TEMP:  62; 6HR MAX TEMP:  67;

MONTICELLO *   PTSUNNY   64  41  42 W15       29.77F
OELWEIN *      PTSUNNY   66  43  42 W18G24    29.76F
WATERLOO       PTSUNNY   67  42  40 W16       29.76F
6HR MIN TEMP:  64; 6HR MAX TEMP:  69;

$$

IAZ064-065-067-068-078-040100-
   EAST CENTRAL IOWA

CITY           SKY/WX    TMP DP  RH WIND       PRES   REMARKS
DAVENPORT      MOSUNNY   64  40  41 W17G23    29.81F
6HR MIN TEMP:  64; 6HR MAX TEMP:  69;

IOWA CITY      PTSUNNY   64  42  44 W10       29.83F
6HR MIN TEMP:  64; 6HR MAX TEMP:  68;

MT. PLEASANT * MOSUNNY   68  43  40 W8        29.86F
MUSCATINE *    MOSUNNY   66  39  37 W14       29.83F
QUAD CITIES    MOSUNNY   65  40  39 W13       29.81F
6HR MIN TEMP:  64; 6HR MAX TEMP:  70;

$$

IAZ062-063-075>077-085>089-095>099-040100-
   SOUTHEAST IOWA

CITY           SKY/WX    TMP DP  RH WIND       PRES   REMARKS
BURLINGTON     MOSUNNY   64  45  49 W9        29.85F
6HR MIN TEMP:  63; 6HR MAX TEMP:  67;

FAIRFIELD *    CLOUDY    64  43  45 W9        29.85F
FORT MADISON * PTSUNNY   64  45  48 W7        29.87F
KEOKUK *       MOSUNNY   66  43  42 W8        29.86F
OSKALOOSA *    PTSUNNY   64  43  45 W13       29.85F
OTTUMWA        CLOUDY    63  44  50 W9        29.85F
6HR MIN TEMP:  63; 6HR MAX TEMP:  68;

WASHINGTON *   MOSUNNY   64  43  45 W12       29.85F
$$

ABBREVIATIONS USED IN REMARKS
   TC - TEMPERATURES IN CELSIUS
  WCI - WIND CHILL INDEX
   HX - HEAT INDEX
  VSB - VISIBILITY
$$




USA.gov is the U.S. government's official web portal to all federal, state and local government web resources and services.